Torna al catalogo

ABS 3A

AttivoComunicazioniGEO
NORAD 40424·PAYLOAD·🇦🇪 UAE🇧🇲 BM

Lanciato Mar 2, 2015 da Cape Canaveral Space Force Station

Loading…

TLE

AggiornatoSource: Space-Track

Epoca: Sep 14, 2026, 06:56 UTC

1 40424U 15010A   26257.28946437 -.00000035  00000-0  00000-0 0  9995
2 40424   0.0022 177.5239 0002068 303.5466 333.4310  1.00272388 42269

Traccia ABS 3A in tempo reale con AllMySat

Download on the App Store